Location: Ambohimarina
(18.7667°S, 47.4833°E)
Time: 20:09:46
(UTC+00:00)

Daily predictions for brighter satellites

Satellite Brightness Start Highest point End
(mag) Time Altitude Azimuth Time Altitude Azimuth Time Altitude Azimuth
Envisat 3.1 14:37:57 10° SSE 14:42:59 57° E 14:47:57 10° N
Delta 202 4.0 14:38:10 10° WNW 14:43:30 71° N 14:50:19 10° E
CREW DRAGON DEMO-1 DEB 3.3 14:45:46 10° SSW 14:48:45 41° SE 14:51:41 10° ENE
COSMO-SKYMED 1 4.5 14:49:16 10° NNW 14:53:14 36° W 14:57:17 10° SSW
Cosmos 2360 Rocket 3.2 14:52:43 10° SSE 14:57:13 24° ESE 15:01:42 10° ENE
Cosmos 1814 Rocket 4.4 14:52:24 10° SSW 14:57:46 72° WNW 15:03:01 10° N
Cosmos 1818 3.5 14:54:20 10° SSW 14:59:42 66° ESE 15:05:02 10° NNE
CZ-4 R/B 3.4 14:58:39 10° ESE 15:00:04 12° E 15:01:30 10° ENE
SEDSat Delta rocket 4.3 14:59:30 10° WSW 15:04:06 49° NNW 15:09:21 10° NE
Cosmos 1470 3.5 15:00:37 10° NNE 15:04:11 33° E 15:07:49 10° SSE
Radarsat Rocket 4.4 15:01:32 10° S 15:07:18 64° WSW 15:13:17 10° NNW
Longmarch 3A Rocket 2.8 14:56:34 10° WSW 15:08:33 55° S 15:11:09 14° E
Fermi 3.8 15:05:55 10° WNW 15:09:58 71° SSW 15:13:09 16° ESE
Cosmos 1544 Rocket 4.0 15:05:56 10° NNE 15:10:08 42° E 15:14:22 10° SSE
GPS 2-14 Rocket1 2.5 15:07:09 10° W 15:10:55 69° S 15:13:54 16° E
Cosmos 1939 Rocket 4.1 15:12:02 14° SE 15:14:35 23° E 15:17:52 10° NNE
Cosmos 1626 3.1 15:11:56 10° SSE 15:15:06 26° E 15:18:14 10° NE
Cosmos 1674 2.9 15:12:30 10° S 15:16:21 76° W 15:20:10 10° N
Helios 1A Rocket 2.9 15:12:51 10° SSE 15:17:00 66° ENE 15:21:07 10° N
SL-16 R/B 2.5 15:11:32 10° SSW 15:17:13 72° WNW 15:22:50 10° N
Cosmos 2227 Rocket 3.6 15:14:42 10° NE 15:18:17 17° E 15:19:38 16° E
Cosmos 2266 Rocket 3.9 15:12:37 10° S 15:18:40 67° E 15:24:38 10° NNE
Cosmos 2084 Rocket 4.2 15:17:01 10° N 15:21:10 36° ENE 15:23:41 20° ESE
USA 215 3.2 15:17:00 10° NE 15:23:31 85° SE 15:30:05 10° SW
Cosmos 2219 3.8 15:22:23 10° NNE 15:27:25 34° ENE 15:30:28 20° SE
ATLAS 5 CENTAUR R/B 2.7 15:23:25 10° SW 15:27:45 45° WNW 15:31:39 10° N
Centaur D-1AR AC-39 3.6 15:23:11 10° W 15:28:18 76° S 15:49:33 17° E
Centaur D-1AR AC-39 3.6 15:23:11 10° W 15:28:18 76° S 15:49:30 17° E
Centaur D-1AR AC-39 3.6 15:23:12 10° W 15:28:18 76° S 15:49:32 17° E
Centaur D-1AR AC-39 3.6 15:23:11 10° W 15:28:18 76° S 15:49:29 17° E
Gbstr 26 Del rocket 4.4 15:23:52 10° SSW 15:28:49 28° SE 15:30:27 23° ESE
Cosmos 1340 Rocket 3.4 15:26:21 10° NNE 15:29:56 35° E 15:31:20 26° SE
BREEZE M DEB (TANK) 3.5 15:30:43 10° NW 15:33:55 88° SW 15:41:13 15° SE
Ariane H10 4.4 15:33:00 10° N 15:35:21 15° NNE 15:39:20 10° ENE
Cosmos 1758 3.2 15:32:53 10° N 15:36:54 85° E 15:40:54 10° S
Cosmos 836 Rocket 4.4 15:37:06 10° S 15:42:26 78° ESE 15:47:42 10° NNE
SL-4 R/B 2.6 15:39:07 10° NNW 15:43:51 54° NE 15:45:26 37° ESE
ASTEX 1 4.2 15:39:32 10° S 15:44:24 53° W 15:49:14 10° NNW
Exosat Rocket 4.1 15:42:45 10° N 15:47:47 46° E 15:50:40 28° SE
CZ-2C R/B 2.8 15:45:46 10° NE 15:50:36 41° ESE 15:55:29 10° S
SWIFT 3.4 15:51:07 10° W 15:55:03 40° NNW 15:56:50 26° NNE
NOSS 3-3 (A) 3.6 15:49:33 10° SSW 15:55:26 77° ESE 16:00:59 10° NNE
NOSS 3-3 (C) 3.6 15:49:39 10° SSW 15:55:32 76° ESE 16:01:05 10° NNE
GEOS 3 Rocket 3.7 15:51:17 10° NNE 15:56:34 79° WNW 16:01:47 10° SSW
Meteor 2-14 Rocket 4.4 15:53:07 10° S 15:59:12 60° E 16:05:14 10° NNE
Meteor 2-21 4.3 15:54:45 10° S 16:00:58 70° E 16:07:07 10° NNE
DMSP B5D2-2 4.0 15:57:39 10° NNE 16:02:45 59° ESE 16:07:54 10° S
Cosmos 2322 Rocket 4.2 15:58:57 10° SW 16:03:45 29° WNW 16:08:31 10° NNW
H-2A R/B 2.8 16:00:51 10° WSW 16:03:50 40° S 16:05:09 35° SSE
Cosmos 1892 Rocket 4.5 16:00:23 10° SSW 16:04:36 47° W 16:08:45 10° NNW
Nadezhda 2 Rocket 4.3 15:58:30 10° S 16:04:39 69° E 16:10:49 10° NNE
Cosmos 1553 Rocket 3.9 15:58:42 10° N 16:04:51 83° E 16:10:11 15° S
USA 234 4.1 16:04:19 29° ENE 16:04:53 30° NE 16:10:26 10° N
GPS 2-04 Rocket1 4.3 16:07:05 10° SW 16:08:27 21° SW 16:08:27 21° SW
MOS 1 Rocket 3.9 16:07:01 10° N 16:12:17 70° W 16:17:45 10° SSW
S3M 3.9 16:06:45 10° N 16:13:03 67° E 16:15:04 44° SSE
H-2A R/B 3.6 16:08:55 10° NNW 16:13:26 43° NE 16:16:19 36° E
Aureole 3 Rocket 4.4 16:06:23 10° N 16:14:23 69° W 16:19:32 14° S
YAOGAN 1 2.5 16:14:38 83° WSW 16:14:40 83° WSW 16:19:00 10° NNW
Meteor 1-16 Rocket 4.1 16:09:33 10° N 16:15:11 75° E 16:16:25 56° SSE
Lacrosse 4 Rocket 2.5 16:13:44 10° NW 16:17:29 38° WSW 16:18:12 35° SW
Cosmos 2297 Rocket 2.1 16:12:58 10° NNW 16:18:37 86° WSW 16:19:53 56° S
ASTRO E2 3.8 16:16:36 10° WSW 16:19:12 39° WSW 16:19:12 39° WSW
Cosmos 1244 Rocket 4.3 16:17:13 10° S 16:23:26 89° E 16:29:34 10° N
Okean-O 4.2 16:21:42 18° SSW 16:24:21 33° WSW 16:28:21 10° NW
Cosmos 1953 3.6 16:23:57 10° NNW 16:27:45 39° W 16:28:01 38° WSW
Cosmos 1726 3.8 16:25:07 10° NNW 16:27:53 32° WNW 16:27:53 32° WNW
Cosmos 2322 3.7 16:23:20 10° SSW 16:29:05 83° WNW 16:34:47 10° NNE
CZ-4 R/B 3.1 16:34:29 29° WSW 16:35:01 30° WSW 16:38:36 10° NW
Cosmos 2360 Rocket 4.2 16:36:22 10° SW 16:41:00 27° WNW 16:45:38 10° NNW
Cosmos 2333 4.5 16:35:29 10° SSW 16:41:01 64° WNW 16:46:32 10° N
CZ-2C R/B 4.4 16:50:09 37° N 16:50:09 37° N 16:53:32 10° NNW
Delta 202 4.3 16:47:10 10° W 16:53:06 81° W 16:53:06 81° W
SJ 16-02 3.9 16:56:29 10° NNW 16:57:28 16° NW 16:57:28 16° NW
Cosmos 2227 Rocket 3.5 16:56:46 10° NW 17:01:32 36° W 17:01:32 36° W
